Regional Weather Roundup
Issued by NWS Grand Forks, ND

Home | Current Version | Previous Version | Graphics & Text | Print | Product List | Glossary On
Versions: 1 2 3 4 5 6 7 8 9 10 11 12 13 14 15 16 17 18 19 20 21 22 23 24 25 26 27 28 29 30 31 32 33 34 35 36 37 38 39 40 41 42 43 44 45 46 47 48 49 50
000
ASUS43 KFGF 251910
RWRFGF
PRAIRIE TO PINES  WEATHER ROUNDUP
NATIONAL WEATHER SERVICE EASTERN NORTH DAKOTA/GRAND FORKS ND
100 PM CST TUE NOV 25 2014

 **SATELLITE DATA USED TO AUGMENT SKY COVER AT AUTOMATED STATIONS**
 *****  WEATHER ACROSS EASTERN NORTH DAKOTA  *****

CITY           SKY/WX    TMP DP  RH WIND       PRES   REMARKS
GRAND FORKS    CLOUDY    22  15  75 E6        29.94F WCI  14
GRAND FRKS AFB CLOUDY    21  16  80 E5        29.93F WCI  15
GRAND FRKS NWS   N/A     21 N/A N/A SE5         N/A  WCI  15
DEVILS LAKE    CLOUDY    25  14  63 E12       29.83F WCI  14
FARGO          CLOUDY    26  18  71 SE7       29.94F WCI  18
WAHPETON ARPT  CLOUDY    25  18  74 SE8       29.95S WCI  16
$$

 ***** WEATHER ACROSS CENTRAL AND WESTERN NORTH DAKOTA  *****

CITY           SKY/WX    TMP DP  RH WIND       PRES   REMARKS
BISMARCK       SNOW      31  29  92 S12       29.73F VSB 1/2 WCI  22
MINOT          SNOW      29  26  89 E12       29.71F VSB 1/2 WCI  19
JAMESTOWN      CLOUDY    32  22  66 SE13      29.83F WCI  22
MINOT AFB      MIX PCPN  28  28  99 E15       29.72F VSB 1/2 WCI  16
GARRISON         N/A     30  29  96 S10       29.69F WCI  21
WILLISTON      CLOUDY    35  31  85 W8        29.67F
DICKINSON      FLURRIES  34  32  92 W17       29.65S WCI  23
HETTINGER      LGT SNOW  33  30  88 W13       29.70S FOG     WCI  24
$$

 *****  OTHER AIRPORT OBSERVATIONS IN OUR AREA  *****

CITY           SKY/WX    TMP DP  RH WIND       PRES   REMARKS
WALHALLA       FLURRIES  16  12  86 N6        29.96S WCI   7
GRAFTON AIRPOR CLOUDY    18  10  73 NE6       29.96S WCI   9
VALLEY CITY AR CLOUDY    28  27  93 SE9       29.87F WCI  20
CANDO          CLOUDY    21  18  86 E14       29.84F WCI   8
CAVALIER APRT  CLOUDY    18  10  73 NE3       29.96S
GWINNER        CLOUDY    32  23  69 S7        29.90F
SHEYENNE NWR     N/A     29  21  73 S3        29.95S
ROLLA          LGT SNOW  16  16 100 E14       29.84S WCI   1
 ***** THE ABOVE OBSERVATIONS ARE NON NWS ARE NOT QUALITY
       CONTROLLED AND MAY MIS-REPORT RAIN FOR SNOW...
$$

  *****  WEATHER ACROSS NORTHERN MINNESOTA  *****

CITY           SKY/WX    TMP DP  RH WIND       PRES   REMARKS
FLAG ISLAND    CLOUDY    10   5  79 CALM      29.93S
WARROAD        PTSUNNY   16  10  79 CALM      29.93S
ROSEAU         PTSUNNY   18  10  73 CALM      29.93S
HALLOCK          N/A     18  10  73 CALM      29.95S
THF RVR FALLS  CLOUDY    19  12  73 CALM      29.94F
BAUDETTE       PTSUNNY   15   9  76 E3        29.92F
WASKISH        PTSUNNY   18  10  73 CALM      29.94S
CROOKSTON      CLOUDY    21  16  79 CALM      29.95F
STEPHEN NDAWN    N/A     18  10  73 N5          N/A  WCI  11
GREENBUSH NDAW   N/A     16  12  86 S5          N/A  WCI   9
$$
  *****  WEATHER ACROSS CENTRAL AND WEST MINNESOTA  *****

CITY           SKY/WX    TMP DP  RH WIND       PRES   REMARKS
FOSSTON        PTSUNNY   19  10  68 S5        29.93S WCI  13
BEMIDJI        CLOUDY    19   9  65 CALM      29.92F
PARK RAPIDS    CLOUDY    20  10  65 S7        29.92F WCI  11
ELBOW LAKE       N/A     20  13  73 SE9       29.94F WCI  10
WADENA         CLOUDY    19  10  68 SE5       29.94F WCI  13
DETROIT LAKES  CLOUDY    23  18  80 SE8       29.93F WCI  14
MOORHEAD       CLOUDY    25  19  80 S6        29.95S WCI  18
FERGUS FALLS   CLOUDY    21  10  63 S9        29.97F WCI  11
MORRIS MN      NOT AVBL
STAPLES        CLOUDY    18   9  68 SE6       29.96F WCI   9
$$
  *****  WEATHER ELSEWHERE ACROSS MINNESOTA  *****

CITY           SKY/WX    TMP DP  RH WIND       PRES   REMARKS
DULUTH         MOSUNNY   20   9  62 SW6       29.94F WCI  12
INTRNTL FALLS  CLOUDY    16   2  54 SW7       29.94S WCI   6
ELY            MOSUNNY   18   9  68 W5        29.92F WCI  11
CLOQUET        CLOUDY    19   9  63 S7        29.96F WCI  10
WHEATON        CLOUDY    25  18  74 SE9       29.96F WCI  15
BRAINERD       CLOUDY    15   8  73 S7        29.98F WCI   5
HIBBING        MOSUNNY   21   4  47 CALM      29.94F
ALEXANDRIA     CLOUDY    20  10  65 SE9       29.96S WCI   9
SAINT CLOUD    CLOUDY    18  10  71 SE7       30.01F WCI   9
MINNEAPOLIS    CLOUDY    19  11  70 S3        30.05F
$$

  *****  WEATHER ACROSS SOUTH DAKOTA  *****

CITY           SKY/WX    TMP DP  RH WIND       PRES   REMARKS
SIOUX FALLS    CLOUDY    35  18  49 S12       29.95F
BROOKINGS      NOT AVBL
WATERTOWN      CLOUDY    28  21  75 S9        29.89F WCI  19
HURON          PTSUNNY   34  25  69 S10       29.89F
SISSETON         N/A     30  22  72 S10       29.91F WCI  21
ABERDEEN       CLOUDY    31  25  78 SE12      29.87F WCI  22
MITCHELL       PTSUNNY   37  26  64 S9        29.91F
PIERRE         CLOUDY    35  26  69 SE9       29.80F
MOBRIDGE       CLOUDY    35  29  78 S12       29.75F
RAPID CITY     CLOUDY    34  30  85 N9        29.76F
$$

  *****  SOME WEATHER IN NEARBY STATES *****

CITY           SKY/WX    TMP DP  RH WIND       PRES   REMARKS
GLASGOW MT     CLOUDY    37  28  70 NW25G32   29.77R
GREAT FALLS MT FLURRIES  34  27  75 N17       30.01R WCI  23
CHEYENNE WY    CLOUDY    37  18  46 W32G46    29.86F
SCOTTSBLUFF NE CLOUDY    48  20  32 NW30G41   29.82F
OMAHA NE       MOSUNNY   39  17  41 S10       30.06F
DES MOINES IA  MOSUNNY   34   8  33 W6        30.11F
DAVENPORT IA   SUNNY     22  14  71 W12       30.13S WCI  10
CHICAGO IL     MOSUNNY   26  18  71 W9        30.09R WCI  17
EAU CLAIRE WI  SUNNY     18  11  74 SW6       30.05F WCI  10
LA CROSSE WI   SUNNY     25  12  58 CALM      30.08S
$$

  *****  SOME NATIONAL WEATHER *****

CITY           SKY/WX    TMP DP  RH WIND       PRES   REMARKS
LA GUARDIA NY  CLOUDY    54  26  34 W8        29.98F
RALEIGH NC     CLOUDY    58  43  57 NE7       30.01F
ATLANTA GA     CLOUDY    58  28  32 NW6       30.03F
NEW ORLEANS LA CLOUDY    56  31  38 N14       30.13F
OKLAHOMA CITY  SUNNY     52  23  32 VRB5      30.19F
ALBUQUERQUE NM MOSUNNY   39  10  30 S3        30.35F
SALT LAKE CITY PTSUNNY   41  18  39 VRB3      30.35F
LOS ANGELES CA SUNNY     75  10   8 NE5       30.36F
BOISE ID       CLOUDY    50  41  71 N3        30.25F
SEATTLE WA     DRIZZLE   49  48  97 CALM      30.22R FOG
$$

*** WEATHER ACROSS MANITOBA...SASKATCHEWAN AND ONTARIO ***
                ***ONTARIO***

CITY           SKY/WX    TMP DP  RH WIND       PRES   REMARKS
GERALDTON      MOSUNNY   12   5  73 W6        29.86R WCI   3
THUNDER BAY    PTSUNNY   18   5  57 W7        29.96S WCI   8
SIOUX LOOKOUT  FLURRIES  10   1  67 NW8       29.90R WCI  -1
TORONTO        CLOUDY    36  25  64 W23G35    29.93R
BIG TROUT LK   SUNNY    -11 -20  64 W12       29.92R WCI -31
PICKLE LAKE    FLURRIES   3  -4  72 NW6       29.86R WCI  -8
DRYDEN         MOSUNNY   12   5  73 W7        29.90S WCI   2
KENORA         CLOUDY    10   3  72 CALM      29.91S
$$
                *** MANITOBA***

CITY           SKY/WX    TMP DP  RH WIND       PRES   REMARKS
BRANDON        LGT SNOW  12   9  85 E17       29.93R VSB 3/4 WCI  -5
DAUPHIN        FLURRIES   7   3  85 N12       30.02R WCI  -9
ISLAND LAKE    SUNNY    -11 -22  58 NW7       30.03R WCI -26
PILOT MOUND      N/A     16  12  86 E10         N/A  WCI   3
THE PAS        SUNNY     -8 -17  65 N6        30.15R WCI -21
THOMPSON       SUNNY    -13 -22  64 NW8       30.09R WCI -30
WINNIPEG       FLURRIES  12   5  73 NE10      29.99S WCI  -1
LYNN LAKE      SUNNY    -17 -22  76 W9        30.10R WCI -36
CHURCHILL      CRYSTALS -11 -17  77 NW21G26   30.00R BLWGSNOWWCI -37
GILLAM         SUNNY    -18 -26  69 W9        30.03R WCI -38
$$
                ***SASKATCHEWAN***

CITY           SKY/WX    TMP DP  RH WIND       PRES   REMARKS
ESTEVAN        LGT SNOW  25  21  86 NE17      29.73R VSB 3/4 WCI  11
KINDERSLEY     PTSUNNY   18  12  79 NE10      29.99R WCI   6
LLOYDMINSTER   SNOWSHWR   9   7  92 N9        30.05R VSB 3/4 WCI  -5
PRINCE ALBERT  FLURRIES   7   0  72 NE8       30.10R WCI  -6
REGINA         FLURRIES  21  16  79 NE17      29.85R WCI   7
YORKTON        FLURRIES   7   1  78 N13       29.95R WCI  -9
N. BATTLEFORD  FLURRIES  12   7  79 N5        30.07R WCI   4
LA RONGE       SUNNY     -4 -11  71 N3        30.18R
SASKATOON      PTSUNNY   10   5  79 NE14      30.04R WCI  -5
SWIFT CURRENT  LGT SNOW  21  19  93 N15       29.87R WCI   8
$$
NOTE: THESE ARE AUTOMATED STATIONS WITH LIMITED QUALITY CONTROL
      "FAIR" INDICATES FEW OR NO CLOUDS BELOW 12,000 FEET WITH NO
      SIGNIFICANT WEATHER AND/OR OBSTRUCTIONS TO VISIBILITY.
      SKY/WX - SKY CONDITION AND SIGNIFICANT WEATHER.
      TMP - AIR TEMPERATURE.    DP   - DEWPOINT TEMPERATURE.
      RH  - RELATIVE HUMIDITY.  PRES - PRESSURE.
      HX  - HEAT INDEX.         WCI  - WIND CHILL INDEX.
$



USA.gov is the U.S. government's official web portal to all federal, state and local government web resources and services.